This demonstration page uses our WeatherBlox Daily Observations layout. Learn more.

Hourly Observations for July 30, 2017

Temp ( °F °C ) Dew Point ( °F °C ) Humidity (%) Winds ( mph kmh ) Pressure ( in mb ) Visibility ( mi km ) Precip ( " mm )
12:53 am 00:53 Clear 59 15 56 13.3 90 90 Calm 30.08 1019 10 16.0934 0 0
1:53 am 01:53 Clear 57 13.9 56 13.3 96 96 Calm 30.08 1019 10 16.0934 0 0
2:53 am 02:53 Clear 56 13.3 56 13.3 100 100 Calm 30.09 1019 10 16.0934 0 0
3:53 am 03:53 Clear 56 13.3 56 13.3 100 100 Calm 30.1 1019 10 16.0934 0 0
4:53 am 04:53 Clear 56 13.3 55 12.8 97 97 Calm 30.11 1020 10 16.0934 0 0
5:53 am 05:53 Clear 55 12.8 55 12.8 100 100 Calm 30.12 1020 10 16.0934 0 0
6:53 am 06:53 Sunny 55 12.8 55 12.8 100 100 Calm 30.14 1021 7 11.26538 0 0
7:53 am 07:53 Sunny 62 16.7 59 15 90 90 Calm 30.14 1021 10 16.0934 0 0
8:53 am 08:53 Sunny 68 20 61 16.1 78 78 Calm 30.16 1021 10 16.0934 0 0
9:53 am 09:53 Sunny 74 23.3 62 16.7 67 67 ENE 3 6 30.17 1022 10 16.0934 0 0
10:53 am 10:53 Sunny 78 25.6 62 16.7 58 58 ENE 7 11 30.17 1022 10 16.0934 0 0
11:53 am 11:53 Sunny 80 26.7 61 16.1 52 52 Calm 30.17 1022 10 16.0934 0 0
12:53 pm 12:53 Mostly Sunny 81 27.2 62 16.7 53 53 VRB 5 7 30.17 1022 10 16.0934 0 0
1:53 pm 13:53 Partly Cloudy 82 27.8 61 16.1 49 49 E 8 13 30.16 1022 10 16.0934 0 0
2:53 pm 14:53 Partly Cloudy 84 28.9 61 16.1 46 46 undefined N/A 30.15 1021 10 16.0934 0 0
3:53 pm 15:53 Mostly Sunny 85 29.4 60 15.6 43 43 ENE 10 17 30.14 1021 10 16.0934 0 0
4:53 pm 16:53 Sunny 86 30 62 16.7 45 45 ENE 9 15 30.13 1020 10 16.0934 0 0
5:53 pm 17:53 Mostly Sunny 86 30 61 16.1 43 43 NE 7 11 30.13 1020 10 16.0934 0 0
6:53 pm 18:53 Mostly Sunny 84 28.9 61 16.1 46 46 NE 8 13 30.13 1020 10 16.0934 0 0
7:53 pm 19:53 Sunny 76 24.4 66 18.9 72 72 Calm 30.14 1021 10 16.0934 0 0
8:53 pm 20:53 Clear 70 21.1 66 18.9 87 87 Calm 30.14 1021 10 16.0934 0 0
9:53 pm 21:53 Clear 67 19.4 64 17.8 91 91 Calm 30.14 1021 10 16.0934 0 0
10:53 pm 22:53 Clear 67 19.4 64 17.8 91 91 Calm 30.14 1021 10 16.0934 0 0
11:53 pm 23:53 Clear 65 18.3 64 17.8 97 97 Calm 30.15 1021 10 16.0934 0 0

Powered by AerisWeather